logo
Search for airport 
image banner adimage banner adimage banner ad
image banner ad

ED1786 - Suhl Srh Zentralklinikum

Located in , Germany

ICAO - , IATA -

Data provided by Airmate  

General information

Coordinates: N50°36'11" E10°42'37"
Elevation is 1772 feet MSL.
 
View others Airports in Thuringia

Operational data

Special qualification required
Current time UTC:
Current local time:
Weather at : EDDE - Erfurt-Weimar ( 45 km )
METAR: EDDE 171320Z AUTO 20010KT 170V230 9999 FEW038 SCT046 23/13 Q1013 NOSIG
TAF: TAF EDDE 171100Z 1712/1812 23011KT 9999 BKN040 PROB40 TEMPO 1712/1718 23015G25KT 4500 TSRA BKN030CB BECMG 1717/1719 21006KT
View NOTAMs / SUP AIP / TFR affecting this airport [VIEW]
Communications frequencies: [VIEW]

Runways:

Airport contact information

Address: Germany

Satellite view of ED1786